Rochester, NY

3:52 AM EDT on September 23, 2017 (GMT -0400)
Greater Rochester International

Weather History for KROC - October, 2013

Change the Weather History Date:

Thursday, October 3, 2013

  Actual Average Record
Temperature  
Mean Temperature 60 °F 55 °F  
Max Temperature 73 °F 65 °F 90 °F (1951)
Min Temperature 47 °F 46 °F 29 °F (1974)
Degree Days  
Heating Degree Days 5 10  
Month to date heating degree days 5 30  
Since 1 July heating degree days 195 211  
Cooling Degree Days 0 0  
Month to date cooling degree days 3 0  
Year to date cooling degree days 653 534  
Growing Degree Days 10 (Base 50)    
Moisture  
Dew Point 49 °F    
Average Humidity 65    
Maximum Humidity 100    
Minimum Humidity 29    
Precipitation  
Precipitation 0.02 in 0.09 in 1.01 in (1929)
Month to date precipitation 0.02 0.27  
Year to date precipitation 27.64 26.25  
Snow  
Snow 0.00 in 0.00 in T in (1974)
Month to date snowfall 0.0 0.0  
Since 1 July snowfall 0.0 0.0  
Since 1 September snowfall 0.0 0.0  
Snow Depth 0.00 in    
Sea Level Pressure  
Sea Level Pressure 30.10 in    
Wind  
Wind Speed 3 mph (SW)    
Max Wind Speed 9 mph    
Max Gust Speed 12 mph    
Visibility 7 miles    
Events Fog    
T = Trace of Precipitation, MM = Missing Value Source: NWS Daily Summary

Daily Weather History Graph

Daily Weather History Graph

Search for Another Location

Airport or City:

Trip Planner

Search our weather history database for the weather conditions in past years. The results will help you decide how hot, cold, wet, or windy it might be!

Date:

Astronomy

Oct. 03, 2013 Rise Set
Actual Time 7:10 AM EDT 6:47 PM EDT
Civil Twilight 6:42 AM EDT 7:16 PM EDT
Nautical Twilight 6:09 AM EDT 7:49 PM EDT
Astronomical Twilight 5:35 AM EDT 8:22 PM EDT
Moon 5:40 AM EDT (10/3) 5:56 PM EDT (10/3)
Length of Visible Light 12h 34m
Length of Day
11h 37m
Waning Crescent, 2% of the Moon is Illuminated
Oct 3
Waning Crescent
Oct 4
New
Oct 11
First Quarter
Oct 18
Full
Oct 26
Last Quarter

Hourly Weather History & Observations

Time (EDT) Temp. Dew Point Humidity Pressure Visibility Wind Dir Wind Speed Gust Speed Precip Events Conditions
12:54 AM 54.0 °F 52.0 °F 93% 30.11 in 6.0 mi SW 3.5 mph - N/A   Clear
12:57 AM 53.6 °F 51.8 °F 94% 30.10 in 1.0 mi SW 3.5 mph - N/A   Mist
1:06 AM 53.6 °F 51.8 °F 94% 30.10 in 2.0 mi SW 4.6 mph - N/A   Scattered Clouds
1:54 AM 52.0 °F 51.1 °F 97% 30.11 in 7.0 mi SW 3.5 mph - N/A Fog Patches of Fog
2:25 AM 51.8 °F 51.8 °F 100% 30.10 in 1.5 mi Calm Calm - N/A   Partly Cloudy
2:51 AM 48.2 °F 48.2 °F 100% 30.10 in 0.2 mi SW 5.8 mph - N/A Fog Fog
2:54 AM 48.9 °F 48.0 °F 97% 30.11 in 0.2 mi WSW 4.6 mph - N/A Fog Fog
3:33 AM 50.0 °F 48.2 °F 94% 30.10 in 2.0 mi SW 3.5 mph - N/A   Partly Cloudy
3:51 AM 48.2 °F 48.2 °F 100% 30.10 in 1.8 mi WSW 3.5 mph - N/A   Mostly Cloudy
3:54 AM 48.9 °F 48.0 °F 97% 30.11 in 1.8 mi WSW 3.5 mph - N/A   Overcast
4:54 AM 48.9 °F 46.9 °F 93% 30.11 in 7.0 mi WSW 4.6 mph - N/A Fog Shallow Fog
5:54 AM 48.0 °F 46.9 °F 96% 30.12 in 7.0 mi SW 4.6 mph - N/A Fog Shallow Fog
6:54 AM 48.9 °F 48.0 °F 97% 30.13 in 6.0 mi WSW 4.6 mph - N/A   Scattered Clouds
7:54 AM 48.9 °F 48.0 °F 97% 30.14 in 6.0 mi SW 4.6 mph - N/A   Scattered Clouds
8:54 AM 55.0 °F 52.0 °F 89% 30.16 in 10.0 mi SW 5.8 mph - N/A   Scattered Clouds
9:54 AM 59.0 °F 52.0 °F 78% 30.15 in 10.0 mi SW 4.6 mph - N/A   Scattered Clouds
10:54 AM 64.0 °F 51.1 °F 63% 30.14 in 10.0 mi Calm Calm - N/A   Scattered Clouds
11:54 AM 68.0 °F 46.9 °F 47% 30.13 in 10.0 mi Calm Calm - N/A   Scattered Clouds
12:54 PM 70.0 °F 46.0 °F 42% 30.11 in 10.0 mi Calm Calm - N/A   Mostly Cloudy
1:54 PM 71.1 °F 41.0 °F 34% 30.08 in 10.0 mi South 3.5 mph - N/A   Mostly Cloudy
2:54 PM 72.0 °F 39.0 °F 30% 30.07 in 9.0 mi Calm Calm - N/A   Overcast
3:54 PM 72.0 °F 39.9 °F 31% 30.05 in 10.0 mi Calm Calm - N/A   Mostly Cloudy
4:54 PM 73.0 °F 39.0 °F 29% 30.05 in 10.0 mi Calm Calm - N/A   Overcast
5:54 PM 68.0 °F 54.0 °F 61% 30.05 in 10.0 mi NNE 6.9 mph - N/A   Overcast
6:54 PM 64.0 °F 55.0 °F 73% 30.05 in 10.0 mi ENE 5.8 mph - N/A   Mostly Cloudy
7:54 PM 64.0 °F 57.0 °F 78% 30.06 in 10.0 mi ENE 5.8 mph - N/A   Overcast
8:54 PM 64.0 °F 57.9 °F 80% 30.05 in 10.0 mi East 4.6 mph - 0.00 in   Overcast
9:54 PM 63.0 °F 55.0 °F 75% 30.06 in 10.0 mi East 4.6 mph - 0.00 in   Mostly Cloudy
10:54 PM 61.0 °F 54.0 °F 78% 30.05 in 10.0 mi ESE 5.8 mph - 0.01 in   Mostly Cloudy